Location: Bastelaar
(51.0950°N, 3.8602°E)
Time: 02:29:36
(UTC+00:00)

Cosmos 1484 Rocket - Pass Details

Date: 18 November 2025
Orbit: 442 x 473 km, 97.6° (Epoch: 13 December)

Event Time Altitude Azimuth Distance (km) Brightness Sun altitude
Rises 16:25:38 0° 166° (SSE) 2,505 6.3 -5.4°
Reaches altitude 10° 16:27:40 10° 167° (SSE) 1,638 5.4 -5.7°
Maximum altitude 16:31:12 84° 256° (WSW) 487 2.6 -6.2°
Drops below altitude 10° 16:34:47 10° 345° (NNW) 1,663 5.2 -6.7°
Sets 16:36:52 0° 346° (NNW) 2,549 6.1 -7.0°
